Regional Weather Roundup
Issued by NWS

Home | Current Version | Previous Version | Text Only | Print | Product List | Glossary On
Versions: 1 2 3 4 5 6 7 8 9 10 11 12 13 14 15 16 17 18 19 20 21 22 23 24 25 26 27 28 29 30 31 32 33 34 35 36 37 38 39 40 41 42 43 44 45 46 47 48 49 50
000
ASUS45 KTFX 210204
RWRMT
MONTANA HOURLY WEATHER ROUNDUP
NATIONAL WEATHER SERVICE GREAT FALLS MT
704 PM MST SAT DEC 20 2014

NOTE: "FAIR" INDICATES FEW OR NO CLOUDS BELOW 12000 FEET WITH NO
SIGNIFICANT WEATHER AND/OR OBSTRUCTIONS TO VISIBILITY.

* THESE STATIONS ARE NOT UNDER NWS QUALITY CONTROL. THEY DO NOT
   REPORT WEATHER SUCH AS PRECIPITATION OR FOG.

MTZ001>007-043-210300-
WEST OF THE DIVIDE
CITY           SKY/WX    TMP DP  RH WIND       PRES   REMARKS
KALISPELL      CLOUDY    32  30  92 CALM      29.70F
MISSOULA       FOG       30  30 100 CALM      29.74F
BUTTE          CLOUDY    32  23  69 S6        29.75F WCI  26
MULLAN PASS    SNOW      30  27  89 VRB3      29.63F VSB M1/4
* ESSEX        N/A       31  30  96 NW1        N/A
* LINCOLN      N/A       28  25  89 N/A        N/A
* LOOKOUT PASS N/A       31  31 100 N4         N/A
* POLSON       N/A       33  31  92 SE1        N/A
* RONAN APT    CLOUDY    34  30  85 N/A        N/A
* SEELEY LAKE  N/A       27  26  96 N/A        N/A
* THOMP F APT  CLOUDY    28  27  96 S8         N/A   WCI  20
* YAAK HILL    N/A       36  33  89 NE1        N/A
$$

MTZ008-052>055-210300-
SOUTHWEST MONTANA
CITY           SKY/WX    TMP DP  RH WIND       PRES   REMARKS
BOZEMAN        CLOUDY    28  23  81 SE9       29.77F WCI  19
DILLON         CLOUDY    36  25  64 S7        29.77F WCI  30
* W YELLOWSTON CLOUDY    28  26  92 SW4G10     N/A
* THREE FORKS  MOCLDY    41  41 100 S16G25     N/A
* BOULDER HILL N/A       30  20  66 S11        N/A   WCI  21
* MONIDA PASS  N/A       27  27 100 S16        N/A   WCI  15
* RAYNOLDS PAS N/A       30  16  56 S11G20     N/A   WCI  21
* WHITEHALL    N/A       35  24  64 E2G11      N/A
* WISE RIVER   N/A       27  24  88 S4         N/A
$$

MTZ009>010-012-014-046-048-049-054-210300-
EAST SLOPES AND CENTRAL MONTANA
CITY           SKY/WX    TMP DP  RH WIND       PRES   REMARKS
CUT BANK       PTCLDY    30  19  64 E7        29.60F WCI  23
GREAT FALLS    PTCLDY    34  25  70 S12       29.66F WCI  25
HELENA         CLOUDY    36  27  70 VRB3      29.72F
* DEARBORN     N/A       41  25  53 S7G12      N/A
* EAST GLACIER N/A       33  26  75 W17G27     N/A   WCI  22
* MONARCH      N/A       33  16  50 S9G17      N/A   WCI  25
* PENDROY      N/A       31  23  72 SW6        N/A   WCI  25
* SWEET GRASS  N/A       29  20  69 S14        N/A   WCI  18
$$

MTZ011-013-016-021-035-040-045-047-050-051-210300-
NORTH CENTRAL MONTANA
CITY           SKY/WX    TMP DP  RH WIND       PRES   REMARKS
HAVRE          CLEAR     34  25  70 S5        29.67F WCI  29
LEWISTOWN      CLOUDY    36  25  64 SW15      29.71F WCI  27
* N BAR RANCH  FAIR      27  19  72 NW3       29.74F
* CHESTER      N/A       28  21  75 S3         N/A
* DENTON       N/A       35  24  64 S10G15     N/A   WCI  27
* JUDITH GAP   N/A       33  23  67 SW12       N/A   WCI  24
* LOMA         N/A       37  25  62 SW2        N/A
$$

MTZ017>020-022>027-061-062-210300-
NORTHEAST MONTANA
CITY           SKY/WX    TMP DP  RH WIND       PRES   REMARKS
GLASGOW        CLEAR     32  21  64 CALM      29.73F
GLENDIVE       CLEAR     30  21  69 SW6       29.79F WCI  24
JORDAN         CLEAR     28  21  75 CALM      29.73F
SIDNEY         PTCLDY    30  25  82 S7        29.79S WCI  23
WOLF POINT     CLEAR     25  21  85 CALM      29.76F
* BEAVER HILL  N/A       34  24  67 S9G14      N/A   WCI  27
* CIRCLE       N/A       32  23  69 N/A        N/A
* LINDSAY DVD  N/A       29  20  69 SW9        N/A   WCI  21
* SACO         N/A       29  22  75 S6         N/A   WCI  23
$$

MTZ028>042-056>058-210300-
SOUTHCENTRAL AND SOUTHEAST MONTANA
CITY           SKY/WX    TMP DP  RH WIND       PRES   REMARKS
BAKER          PTCLDY    30  25  82 CALM      29.80F
BILLINGS       MOCLDY    36  23  59 SW14      29.78F WCI  27
LIVINGSTON     PTCLDY    43  21  42 SW28G33   29.73F
MILES CITY     PTCLDY    34  21  59 SE5       29.78F WCI  29
* LAUREL APT   CLEAR     32  18  56 S6         N/A   WCI  26
* ROUNDUP APT  PTCLDY    37  21  52 N/A        N/A
* ALZADA       N/A       36  24  62 E3         N/A
* HYSHAM       N/A       39  20  46 W6         N/A   WCI  35
* LAME DEER    N/A       37  24  59 SW8        N/A   WCI  31
* REED POINT   N/A       34  24  67 SE2        N/A
* ROSCOE HILL  N/A       39  12  33 S9G21      N/A   WCI  33
$$

REGIONAL REPORTS...DAKOTAS
CITY           SKY/WX    TMP DP  RH WIND       PRES   REMARKS
WILLISTON      CLEAR     30  25  82 SW7       29.75S WCI  23
DICKINSON      MOCLDY    30  25  82 SW7       29.77F WCI  23
BEACH          CLEAR     32  27  82 SW12      29.79F WCI  23
CROSBY         CLEAR     28  28 100 CALM      29.73S
WATFORD CITY   CLEAR     30  27  89 SW6       29.75S WCI  24
BISMARCK       CLEAR     21  21 100 SE5       29.82S WCI  14
GRAND FORKS    LGT SNOW  28  28 100 S13       29.89F VSB 2 1/2 WCI  17
FARGO          FOG       34  28  79 S14G28    29.92F WCI  24
BUFFALO SD     MOCLDY    34  25  70 W10       29.75F WCI  26
RAPID CITY     PTCLDY    28  25  89 CALM      29.87S
$$

REGIONAL REPORTS...WYOMING/IDAHO/WASHINGTON
CITY           SKY/WX    TMP DP  RH WIND       PRES   REMARKS
GILLETTE       CLOUDY    34  27  76 S9        29.80F WCI  27
SHERIDAN       MOCLDY    28  21  75 S3        29.79F
CODY           PTCLDY    30  19  64 SW8       29.80F WCI  22
YELLOWSTONE LA MOCLDY    25  21  85 CALM      29.90F
SALMON         CLOUDY    34  27  76 CALM      29.83S
MULLAN PASS    SNOW      30  27  89 VRB3      29.63S VSB M1/4
SAND POINT     LGT RAIN  36  36 100 CALM      29.69F
SPOKANE        LGT RAIN  39  39 100 SE14      29.61F WCI  31
$$

REGIONAL REPORTS...SASKATCHEWAN
CITY           SKY/WX    TMP DP  RH WIND       PRES   REMARKS
REGINA         FOG       27  27 100 W2        29.69F VSB 2 1/2

$$




USA.gov is the U.S. government's official web portal to all federal, state and local government web resources and services.